Regional Weather Roundup
Issued by NWS

Home | Current Version | Previous Version | Graphics & Text | Print | Product List | Glossary On
Versions: 1 2 3 4 5 6 7 8 9 10 11 12 13 14 15 16 17 18 19 20 21 22 23 24 25 26 27 28 29 30 31 32 33 34 35 36 37 38 39 40 41 42 43 44 45 46 47 48 49
000
ASUS45 KCYS 272010
RWRWY

WYOMING REGIONAL WEATHER ROUNDUP
NATIONAL WEATHER SERVICE CHEYENNE WY
200 PM MDT THU AUG 27 2015

NOTE:  "FAIR" INDICATES FEW OR NO CLOUDS BELOW 12,000 FEET
WITH NO SIGNIFICANT WEATHER AND/OR OBSTRUCTIONS TO VISIBILITY.

WYZ001-272100-
YELLOWSTONE NATIONAL PARK

CITY           SKY/WX    TMP DP  RH WIND       PRES   REMARKS
LK YELLOWSTONE   N/A     61  49  64 VRB3      30.41F
W YELLOWSTONE  NOT AVBL

$$
WYZ002>013-054>058-071-098>099-272100-
NORTHERN WYOMING

CITY           SKY/WX    TMP DP  RH WIND       PRES   REMARKS
JACKSON        FAIR      63  54  72 CALM      30.36F
CODY           FAIR      81  46  30 N6        30.16F
GREYBULL       FAIR      80  51  36 SE8       30.12F
WORLAND        FAIR      75  57  53 S5        30.14F
SHERIDAN       FAIR      88  43  20 NW8       30.06F
BUFFALO        FAIR      80  46  30 SE6       30.14F
GILLETTE       PTSUNNY   83  49  30 W7        30.09F
HULETT         FAIR      79  52  38 CALM      30.09F
NEWCASTLE      FAIR      81  43  26 W7        30.08F

$$
WYZ014>020-022>026-101>103-272100-
CENTRAL WYOMING

CITY           SKY/WX    TMP DP  RH WIND       PRES   REMARKS
BIG PINEY      FAIR      78  42  27 N20G28    30.32F
PINEDALE       FAIR      73  46  38 W22G29    30.32F
DUBOIS         MOCLDY    73  36  25 NW17G28   30.29S
LANDER         FAIR      79  46  31 NW9       30.20F
RIVERTON       FAIR      75  51  43 MISG      30.22F
CASPER         PTSUNNY   76  45  33 CALM      30.19F
DOUGLAS        PTSUNNY   79  47  32 N8        30.15F

$$
WYZ021-027>030-104>119-272100-
SOUTHERN WYOMING

CITY           SKY/WX    TMP DP  RH WIND       PRES   REMARKS
EVANSTON       FAIR      71  47  42 SW8       30.38F
KEMMERER       FAIR      73  41  31 NW21G31   30.37F
FORT BRIDGER   PTCLDY    77  43  29 NW16G29   30.38F
ROCK SPRINGS   PTSUNNY   77  47  34 W18       30.30F
DIXON          MOCLDY    74  51  44 W8G17     30.31F
RAWLINS        PTSUNNY   69  54  58 VRB5      30.30F
SARATOGA       CLOUDY    61  55  82 N7G16     30.33S
LARAMIE        PTSUNNY   67  48  50 NW12G20   30.30F
CHEYENNE       PTSUNNY   76  48  37 N15G26    30.19S
TORRINGTON     FAIR      82  53  36 N14G24    30.05F
PINE BLUFFS    FAIR      81  50  34 N20G29    30.11F

$$


USA.gov is the U.S. government's official web portal to all federal, state and local government web resources and services.